Update The SL-23 rocket debris re-entered the Earths atmosphere on the 2nd August, 2011.
SL-23 rocket debris that was launched on the 18th July, 2011, from the Baikonur Cosmodrome for the Spektr-R mission is predicted to re-enter the Earths atmosphere on the 2nd August, 2011 @ 01:37 GMT ± 96 hours.
SL-23 DEB 1 37759U 11037E 11207.83221538 .02370311 10725-4 13682-2 0 164 2 37759 051.4354 299.4719 0268631 121.4377 241.3221 15.72337931 1150
Period: 91.94 minutes Inclination: 51.42° Apogee: 568 kmPerigee: 171 kmRevolution Number: 214Predicted Location: 13.1°S, 123.9°E